Flag for Netherlands Weather past 2 weeks in Ede, Netherlands

Now
66 °F

Partly sunny.


Feels Like: 66 °F
Forecast: 40 / 59 °F
Wind: 10 mph from Northwest

Location: Deelen

Current Time: Apr 21, 2015 at 2:38:10 PM

Latest Report: Apr 21, 2015 at 1:55 PM


Visibility: N/A

Pressure: 30.45 "Hg

Humidity: 28%

Dew point: 32 °F

Location of EdeLocation

Historic Weather in Ede — Graph

°F

Ede temperature yesterday

Maximum temperature yesterday: 64 °F (at 3:25 PM)
Minimum temperature yesterday: 39 °F (at 1:55 AM)
Average temperature yesterday: 53 °F

Past Weeks' High & Low Weather Summary

 TemperatureHumidityPressure
High73 °F (Apr 15, 3:55 PM)100% (Apr 6, 11:55 PM)30.60 "Hg (Apr 6, 11:55 PM)
Low28 °F (Apr 7, 5:25 AM)31% (Apr 15, 4:55 PM)29.92 "Hg (Apr 11, 3:55 AM)
Average49 °F70%30.27 "Hg
* Reported Apr 6 1:25 PM — Apr 21 1:25 PM, Ede, Weather by CustomWeather, © 2015

Note: Actual official high and low records may vary slightly from our data, if they occured in-between our weather recording intervals... More about our weather records

Advertising

Ede weather history for previous 24 hours

 ConditionsComfort  
Time TempWeatherWind HumidityBarometerVisibility
1:25 PM
Tue, Apr 21
64 °FPassing clouds.9 mph40%30.45 "HgN/A
12:55 PM64 °FPassing clouds.7 mph40%30.45 "HgN/A
12:25 PM64 °FPassing clouds.6 mph40%30.45 "HgN/A
11:55 AM63 °FMild.5 mph42%30.45 "HgN/A
11:25 AM61 °FRefreshingly cool.6 mph36%30.48 "HgN/A
10:55 AM59 °FPassing clouds.6 mph39%30.45 "HgN/A
10:25 AM57 °FPassing clouds.5 mph48%30.45 "HgN/A
9:55 AM54 °FPassing clouds.3 mph58%30.45 "HgN/A
9:25 AM52 °FCool.3 mph67%30.45 "HgN/A
8:55 AM46 °FCool.5 mph87%30.45 "HgN/A
8:25 AM41 °FPassing clouds.2 mph93%30.45 "HgN/A
7:55 AM36 °FFog.No wind93%30.45 "Hg4 mi
7:25 AM34 °FFog.1 mph93%30.45 "Hg2 mi
6:55 AM32 °FIce fog.2 mph93%30.42 "Hg0 mi
6:25 AM32 °FIce fog.1 mph100%30.42 "Hg0 mi
5:55 AM34 °FFog.3 mph93%30.42 "Hg0 mi
5:25 AM34 °FFog.3 mph87%30.42 "Hg6 mi
4:55 AM34 °FPassing clouds.1 mph100%30.42 "HgN/A
4:25 AM36 °FPassing clouds.1 mph100%30.42 "HgN/A
3:55 AM36 °FChilly.2 mph93%30.42 "HgN/A
3:25 AM36 °FPassing clouds.2 mph93%30.42 "HgN/A
2:55 AM36 °FPassing clouds.2 mph93%30.42 "HgN/A
2:25 AM37 °FPassing clouds.No wind87%30.42 "HgN/A
1:55 AM37 °FPassing clouds.2 mph87%30.42 "HgN/A
1:25 AM39 °FPassing clouds.1 mph87%30.42 "HgN/A
12:55 AM41 °FQuite cool.3 mph81%30.42 "HgN/A
12:25 AM43 °FPassing clouds.5 mph76%30.39 "HgN/A
11:55 PM
Mon, Apr 20
45 °FQuite cool.6 mph76%30.39 "HgN/A
11:25 PM45 °FPassing clouds.3 mph76%30.39 "HgN/A
10:55 PM48 °FCool.6 mph66%30.39 "HgN/A
10:25 PM50 °FPassing clouds.6 mph67%30.39 "HgN/A
9:55 PM52 °FCool.8 mph62%30.39 "HgN/A
9:25 PM55 °FPassing clouds.8 mph51%30.39 "HgN/A
8:55 PM57 °FPassing clouds.9 mph48%30.39 "HgN/A
8:25 PM59 °FPassing clouds.12 mph51%30.36 "HgN/A
7:55 PM61 °FPassing clouds.9 mph48%30.36 "HgN/A
7:25 PM63 °FPassing clouds.12 mph45%30.36 "HgN/A
6:55 PM64 °FPartly sunny.10 mph43%30.36 "HgN/A
6:25 PM64 °FMild.12 mph43%30.36 "HgN/A
5:55 PM64 °FPassing clouds.10 mph43%30.36 "HgN/A
5:25 PM64 °FPassing clouds.12 mph40%30.36 "HgN/A
4:55 PM64 °FPassing clouds.13 mph40%30.36 "HgN/A
4:25 PM64 °FMild.12 mph37%30.36 "HgN/A
3:55 PM64 °FMild.10 mph34%30.36 "HgN/A
3:25 PM64 °FPassing clouds.13 mph32%30.36 "HgN/A
2:55 PM63 °FMild.10 mph34%30.36 "HgN/A
2:25 PM63 °FMild.13 mph34%30.39 "HgN/A
Weather by CustomWeather, © 2015

See weather overviewHow to use our weather pages